Regional Weather Roundup
Issued by NWS Jackson, KY

Home | Current Version | Previous Version | Graphics & Text | Print | Product List | Glossary On
Versions: 1 2 3 4 5 6 7 8 9 10 11 12 13 14 15 16 17 18 19 20 21 22 23 24 25 26 27 28 29 30 31 32 33 34 35 36 37 38 39 40 41 42 43 44 45 46 47 48 49 50
000
ASUS43 KJKL 050510
RWRJKL

EAST KENTUCKY HOURLY WEATHER ROUNDUP
NATIONAL WEATHER SERVICE JACKSON KY
100 AM EDT TUE MAY 05 2015

NOTE: "FAIR" INDICATES FEW OR NO CLOUDS BELOW 12,000 FEET WITH
NO SIGNIFICANT WEATHER AND/OR OBSTRUCTIONS TO VISIBILITY.

* THESE REPORTS ARE NOT UNDER NWS QUALITY CONTROL AND MAY NOT
  REPORT WEATHER SUCH AS PRECIPITATION AND FOG.

KYZ079-080-083-085-087-088-110-112-115-119-120-050600
...EASTERN KENTUCKY...

CITY           SKY/WX    TMP DP  RH WIND       PRES   REMARKS
JACKSON        CLEAR     65  49  56 CALM      30.27R
LONDON         CLEAR     59  51  75 CALM      30.27R
SOMERSET*      CLEAR     57  52  82 CALM      30.27R
MONTICELLO*    CLEAR     57  54  90 CALM      30.29R
MIDDLESBORO*   CLEAR     55  53  92 CALM      30.30R
HARLAN APT*    CLEAR     55  54  94 CALM      30.30R
HAZARD APT*    CLEAR     63  50  63 CALM      30.27R
BLACK MTN*       N/A     61  45  55 S7          N/A
PIKEVILLE APT* CLEAR     66  50  55 CALM      30.27R
BIG SANDY*     CLEAR     66  52  60 CALM      30.26R
MOREHEAD APT*  PTCLDY    68  52  56 SW5       30.26R
$$

KYZ035-036-041-042-044-050-067-078-099-050600
...CENTRAL KENTUCKY...

CITY           SKY/WX    TMP DP  RH WIND       PRES   REMARKS
MT STERLING*   CLEAR     68  54  60 SW5       30.26R
FLEMING/MASON* CLEAR     68  55  64 S7        30.24R
DANVILLE*      CLEAR     59  54  82 CALM      30.26R
RICHMOND*      CLEAR     64  50  59 SW5       30.24S
LEXINGTON      CLEAR     67  55  65 CALM      30.24R
FRANKFORT      CLEAR     63  54  72 S3        30.22R
$$

KYZ091>093-OHZ055-061-077-WVZ005-015-034-035-042-050600
...SOUTHERN OHIO/WEST VIRGINIA...

CITY           SKY/WX    TMP DP  RH WIND       PRES   REMARKS
COVINGTON      MOCLDY    68  57  68 S6        30.20S
COLUMBUS       CLOUDY    62  61  96 N5        30.22R FOG
DAYTON         LGT RAIN  64  62  93 CALM      30.24S FOG
WILMINGTON     CLOUDY    65  55  70 NW9       30.22R
HUNTINGTON     CLOUDY    64  54  69 CALM      30.23R
CHARLESTON     MOCLDY    63  52  67 MISG      30.24R
PINEVILLE*     CLOUDY    56  54  91 MISG      30.34R
BECKLEY        MOCLDY    57  46  66 S6        30.32R
BLUEFIELD      CLEAR     65  44  46 SW6       30.34R
$$

VAZ002-007-008-TNZ017-027-036-066-071-050600
...SOUTHWEST VIRGINIA/EAST TENNESSEE...

CITY           SKY/WX    TMP DP  RH WIND       PRES   REMARKS
WISE*          CLEAR     61  41  48 S5        30.35R
JONESVILLE*    CLEAR     54  52  94 CALM      30.32R
ABINGDON*      CLEAR     58  49  74 CALM      30.32S
BRISTOL        CLEAR     56  51  84 N3        30.30S
OAK RIDGE      CLEAR     59  53  80 CALM      30.29R
CROSSVILLE     CLEAR     59  49  69 CALM      30.31R
NASHVILLE      CLEAR     64  55  72 S3        30.23S
$$

...KEY TO REMARKS...
VSB - VISIBILITY IN MILES
WCI - WIND CHILL INDEX
HX  - HEAT INDEX

$$



USA.gov is the U.S. government's official web portal to all federal, state and local government web resources and services.